OEFPT EDHL-EKBI

Flight info

Callsign OEFPT
Flight time 0h 52m
Altitude 3500
Route KHD DCT ALASA DCT ALS
Aircraft DA42/L-SDFGRY/C

Departure

Time 2026-05-07 17:39
Airport Lübeck Blankensee Airport (EDHL)

Arrival

Time 2026-05-07 18:32
Airport Billund Airport (EKBI)
Time Latitude Longitude Altitude Speed Heading
2026-05-07 17:30 53.80570 10.70439 53 ft 0 kts 49°
2026-05-07 17:35 53.80571 10.70442 53 ft 4 kts 49°
2026-05-07 17:36 53.80602 10.70424 53 ft 12 kts 283°
2026-05-07 17:36 53.80532 10.70349 53 ft 14 kts 147°
2026-05-07 17:36 53.80445 10.70448 53 ft 15 kts 147°
2026-05-07 17:36 53.80424 10.70471 53 ft 0 kts 146°
2026-05-07 17:38 53.80399 10.70501 53 ft 18 kts 144°
2026-05-07 17:38 53.80295 10.70681 54 ft 20 kts 70°
2026-05-07 17:38 53.80327 10.70843 54 ft 39 kts 73°
2026-05-07 17:39 53.80450 10.71536 146 ft 69 kts 67°
2026-05-07 17:39 53.80608 10.72307 494 ft 75 kts 67°
2026-05-07 17:39 53.80887 10.73035 793 ft 81 kts 23°
2026-05-07 17:39 53.81426 10.73254 1118 ft 83 kts 20°
2026-05-07 17:40 53.81993 10.73521 1442 ft 87 kts 24°
2026-05-07 17:40 53.82571 10.73850 1786 ft 89 kts 18°
2026-05-07 17:40 53.83221 10.73893 1999 ft 103 kts 23°
2026-05-07 17:40 53.83990 10.74317 2003 ft 128 kts 24°
2026-05-07 17:41 53.84890 10.74776 1999 ft 143 kts 21°
2026-05-07 17:41 53.85874 10.75214 1997 ft 148 kts 19°
2026-05-07 17:41 53.86880 10.75636 1994 ft 150 kts 18°
2026-05-07 17:41 53.87902 10.76059 1997 ft 152 kts 19°
2026-05-07 17:42 53.88933 10.76488 1997 ft 154 kts 18°
2026-05-07 17:42 53.90013 10.76558 1991 ft 159 kts 355°
2026-05-07 17:42 53.91041 10.75859 1988 ft 163 kts 330°
2026-05-07 17:42 53.91938 10.74719 1990 ft 163 kts 327°
2026-05-07 17:43 53.92835 10.73552 1991 ft 163 kts 326°
2026-05-07 17:43 53.93732 10.72383 1991 ft 162 kts 326°
2026-05-07 17:43 53.94625 10.71221 1994 ft 162 kts 327°
2026-05-07 17:43 53.95521 10.70058 1991 ft 162 kts 327°
2026-05-07 17:44 53.96418 10.68886 1992 ft 162 kts 327°
2026-05-07 17:44 53.97318 10.67716 1995 ft 163 kts 327°
2026-05-07 17:44 53.98222 10.66541 1997 ft 164 kts 327°
2026-05-07 17:44 53.99133 10.65358 1995 ft 165 kts 327°
2026-05-07 17:45 54.00036 10.64184 1996 ft 166 kts 327°
2026-05-07 17:45 54.00942 10.63000 2079 ft 161 kts 327°
2026-05-07 17:45 54.01818 10.61853 2209 ft 157 kts 327°
2026-05-07 17:45 54.02676 10.60731 2338 ft 154 kts 327°
2026-05-07 17:46 54.03523 10.59626 2459 ft 153 kts 327°
2026-05-07 17:46 54.04366 10.58526 2592 ft 152 kts 327°
2026-05-07 17:46 54.05203 10.57432 2719 ft 152 kts 326°
2026-05-07 17:46 54.06045 10.56331 2850 ft 153 kts 327°
2026-05-07 17:47 54.06883 10.55239 2979 ft 154 kts 326°
2026-05-07 17:47 54.07750 10.54103 2999 ft 161 kts 326°
2026-05-07 17:47 54.08654 10.52920 3001 ft 166 kts 326°
2026-05-07 17:47 54.09578 10.51708 2999 ft 169 kts 326°
2026-05-07 17:48 54.10515 10.50479 3004 ft 170 kts 326°
2026-05-07 17:48 54.11457 10.49246 3001 ft 171 kts 326°
2026-05-07 17:48 54.12401 10.48005 3003 ft 171 kts 326°
2026-05-07 17:48 54.13345 10.46762 3002 ft 171 kts 326°
2026-05-07 17:49 54.14289 10.45520 3003 ft 171 kts 326°
2026-05-07 17:49 54.15219 10.44299 3004 ft 171 kts 326°
2026-05-07 17:49 54.16165 10.43057 3008 ft 172 kts 325°
2026-05-07 17:49 54.17112 10.41802 3003 ft 172 kts 325°
2026-05-07 17:50 54.18055 10.40559 3005 ft 171 kts 326°
2026-05-07 17:50 54.18997 10.39322 3002 ft 170 kts 325°
2026-05-07 17:50 54.19934 10.38088 3002 ft 170 kts 325°
2026-05-07 17:50 54.20867 10.36854 3007 ft 170 kts 325°
2026-05-07 17:51 54.21787 10.35636 3054 ft 166 kts 325°
2026-05-07 17:51 54.22691 10.34439 3189 ft 162 kts 326°
2026-05-07 17:51 54.23580 10.33265 3313 ft 160 kts 326°
2026-05-07 17:51 54.24451 10.32113 3446 ft 157 kts 326°
2026-05-07 17:52 54.25315 10.30969 3583 ft 157 kts 326°
2026-05-07 17:52 54.26178 10.29828 3708 ft 157 kts 326°
2026-05-07 17:52 54.27040 10.28686 3838 ft 156 kts 326°
2026-05-07 17:52 54.27901 10.27544 3970 ft 157 kts 325°
2026-05-07 17:53 54.28763 10.26400 4013 ft 163 kts 326°
2026-05-07 17:53 54.29672 10.25197 4013 ft 167 kts 326°
2026-05-07 17:53 54.30597 10.23972 4014 ft 169 kts 325°
2026-05-07 17:53 54.31527 10.22734 4013 ft 170 kts 325°
2026-05-07 17:54 54.32461 10.21491 4015 ft 169 kts 324°
2026-05-07 17:54 54.33391 10.20252 4015 ft 169 kts 324°
2026-05-07 17:54 54.34303 10.19036 4013 ft 168 kts 324°
2026-05-07 17:54 54.35228 10.17804 4015 ft 168 kts 324°
2026-05-07 17:55 54.36152 10.16575 4014 ft 168 kts 325°
2026-05-07 17:55 54.37073 10.15346 4014 ft 168 kts 324°
2026-05-07 17:55 54.38022 10.14196 4010 ft 166 kts 336°
2026-05-07 17:55 54.39117 10.13605 4018 ft 164 kts 349°
2026-05-07 17:56 54.40228 10.13146 4019 ft 164 kts 349°
2026-05-07 17:56 54.41338 10.12692 4019 ft 164 kts 349°
2026-05-07 17:56 54.42452 10.12232 4017 ft 164 kts 349°
2026-05-07 17:56 54.43554 10.11777 4020 ft 165 kts 349°
2026-05-07 17:57 54.44672 10.11314 4019 ft 165 kts 349°
2026-05-07 17:57 54.45412 10.11006 4016 ft 165 kts 350°
2026-05-07 17:57 54.46904 10.10386 4016 ft 164 kts 349°
2026-05-07 17:57 54.48015 10.09926 4016 ft 164 kts 349°
2026-05-07 17:58 54.49128 10.09463 4016 ft 164 kts 349°
2026-05-07 17:58 54.50239 10.09001 4015 ft 164 kts 349°
2026-05-07 17:58 54.51346 10.08540 4016 ft 163 kts 349°
2026-05-07 17:58 54.52449 10.08081 4014 ft 163 kts 349°
2026-05-07 17:59 54.53556 10.07620 4014 ft 163 kts 349°
2026-05-07 17:59 54.54663 10.07159 4015 ft 163 kts 349°
2026-05-07 17:59 54.55754 10.06704 4015 ft 164 kts 349°
2026-05-07 17:59 54.56863 10.06242 4015 ft 164 kts 349°
2026-05-07 18:00 54.57974 10.05778 4013 ft 165 kts 349°
2026-05-07 18:00 54.59088 10.05313 4011 ft 165 kts 349°
2026-05-07 18:00 54.60200 10.04849 4012 ft 164 kts 349°
2026-05-07 18:00 54.61306 10.04386 4011 ft 163 kts 349°
2026-05-07 18:01 54.62411 10.03924 4014 ft 163 kts 349°
2026-05-07 18:01 54.63512 10.03463 4013 ft 163 kts 349°
2026-05-07 18:01 54.64612 10.03003 4016 ft 163 kts 349°
2026-05-07 18:01 54.65712 10.02542 4014 ft 163 kts 349°
2026-05-07 18:02 54.67906 10.01621 4013 ft 163 kts 349°
2026-05-07 18:02 54.69008 10.01159 4012 ft 163 kts 349°
2026-05-07 18:02 54.70108 10.00698 4013 ft 163 kts 349°
2026-05-07 18:03 54.71210 10.00237 4013 ft 163 kts 349°
2026-05-07 18:03 54.72316 9.99770 4012 ft 163 kts 349°
2026-05-07 18:03 54.73417 9.99306 4012 ft 163 kts 349°
2026-05-07 18:03 54.74518 9.98842 4009 ft 163 kts 349°
2026-05-07 18:04 54.75618 9.98379 4011 ft 163 kts 349°
2026-05-07 18:04 54.76719 9.97915 4011 ft 163 kts 349°
2026-05-07 18:04 54.77819 9.97452 4011 ft 163 kts 349°
2026-05-07 18:04 54.78905 9.96994 4011 ft 162 kts 349°
2026-05-07 18:05 54.80004 9.96530 4005 ft 163 kts 349°
2026-05-07 18:05 54.81114 9.96286 4005 ft 160 kts
2026-05-07 18:05 54.82211 9.96601 4008 ft 159 kts 13°
2026-05-07 18:05 54.83300 9.96958 4007 ft 159 kts 13°
2026-05-07 18:06 54.84389 9.97318 4013 ft 159 kts 13°
2026-05-07 18:06 54.85478 9.97676 4015 ft 159 kts 13°
2026-05-07 18:06 54.86573 9.98036 4013 ft 160 kts 12°
2026-05-07 18:06 54.87659 9.98391 4013 ft 160 kts 12°
2026-05-07 18:07 54.88756 9.98751 4017 ft 161 kts 13°
2026-05-07 18:07 54.89859 9.99092 4013 ft 162 kts
2026-05-07 18:07 54.90976 9.98859 4011 ft 164 kts 342°
2026-05-07 18:07 54.92001 9.97973 4012 ft 164 kts 333°
2026-05-07 18:08 54.93010 9.97016 4012 ft 165 kts 333°
2026-05-07 18:08 54.94016 9.96059 4012 ft 165 kts 333°
2026-05-07 18:08 54.95011 9.95115 4014 ft 164 kts 333°
2026-05-07 18:08 54.96011 9.94165 4014 ft 164 kts 333°
2026-05-07 18:09 54.97012 9.93215 4016 ft 164 kts 333°
2026-05-07 18:09 54.98015 9.92264 4017 ft 165 kts 333°
2026-05-07 18:09 54.99027 9.91314 4015 ft 164 kts 335°
2026-05-07 18:09 55.00056 9.90448 4015 ft 164 kts 337°
2026-05-07 18:10 55.01090 9.89603 4014 ft 164 kts 337°
2026-05-07 18:10 55.02127 9.88759 4013 ft 165 kts 337°
2026-05-07 18:10 55.03156 9.87925 4010 ft 165 kts 337°
2026-05-07 18:10 55.04202 9.87093 4013 ft 165 kts 337°
2026-05-07 18:11 55.05249 9.86279 4015 ft 164 kts 337°
2026-05-07 18:11 55.05941 9.85739 4014 ft 164 kts 337°
2026-05-07 18:11 55.07338 9.84661 4015 ft 164 kts 337°
2026-05-07 18:11 55.08382 9.83857 4015 ft 164 kts 337°
2026-05-07 18:12 55.09425 9.83047 4012 ft 164 kts 337°
2026-05-07 18:12 55.10469 9.82238 4012 ft 164 kts 337°
2026-05-07 18:12 55.11495 9.81433 4011 ft 164 kts 337°
2026-05-07 18:12 55.12535 9.80622 4012 ft 164 kts 337°
2026-05-07 18:13 55.13580 9.79818 4009 ft 163 kts 337°
2026-05-07 18:13 55.14620 9.79032 4008 ft 163 kts 337°
2026-05-07 18:13 55.15660 9.78247 4008 ft 163 kts 336°
2026-05-07 18:13 55.16650 9.77292 4012 ft 162 kts 329°
2026-05-07 18:14 55.17615 9.76263 4015 ft 162 kts 329°
2026-05-07 18:14 55.18586 9.75255 4015 ft 162 kts 330°
2026-05-07 18:14 55.19563 9.74256 4013 ft 162 kts 330°
2026-05-07 18:14 55.20539 9.73261 4013 ft 162 kts 330°
2026-05-07 18:15 55.21515 9.72267 4013 ft 162 kts 330°
2026-05-07 18:15 55.22479 9.71283 4011 ft 162 kts 330°
2026-05-07 18:15 55.23457 9.70286 4009 ft 162 kts 330°
2026-05-07 18:15 55.24433 9.69288 4012 ft 162 kts 330°
2026-05-07 18:16 55.25409 9.68290 4013 ft 162 kts 330°
2026-05-07 18:16 55.26386 9.67292 4013 ft 162 kts 330°
2026-05-07 18:16 55.27364 9.66291 4010 ft 162 kts 330°
2026-05-07 18:16 55.28011 9.65629 4012 ft 162 kts 330°
2026-05-07 18:17 55.29304 9.64305 4013 ft 162 kts 330°
2026-05-07 18:17 55.30281 9.63303 4008 ft 162 kts 330°
2026-05-07 18:17 55.31255 9.62304 4010 ft 162 kts 330°
2026-05-07 18:17 55.32231 9.61303 4010 ft 162 kts 330°
2026-05-07 18:18 55.33206 9.60301 4010 ft 162 kts 330°
2026-05-07 18:18 55.33867 9.59623 4010 ft 162 kts 330°
2026-05-07 18:18 55.34845 9.58618 3952 ft 165 kts 330°
2026-05-07 18:18 55.35825 9.57612 3832 ft 165 kts 330°
2026-05-07 18:19 55.36820 9.56589 3703 ft 166 kts 330°
2026-05-07 18:19 55.37815 9.55564 3574 ft 166 kts 329°
2026-05-07 18:19 55.38812 9.54536 3451 ft 166 kts 329°
2026-05-07 18:19 55.39807 9.53511 3318 ft 166 kts 329°
2026-05-07 18:20 55.40807 9.52480 3190 ft 166 kts 329°
2026-05-07 18:20 55.41801 9.51454 3060 ft 166 kts 328°
2026-05-07 18:20 55.42780 9.50445 2930 ft 160 kts 327°
2026-05-07 18:20 55.43730 9.49463 2800 ft 156 kts 327°
2026-05-07 18:21 55.44646 9.48514 2674 ft 154 kts 327°
2026-05-07 18:21 55.45565 9.47564 2542 ft 152 kts 327°
2026-05-07 18:21 55.46464 9.46632 2416 ft 149 kts 327°
2026-05-07 18:21 55.47354 9.45711 2286 ft 147 kts 327°
2026-05-07 18:22 55.48232 9.44802 2156 ft 145 kts 327°
2026-05-07 18:22 55.48810 9.44201 2070 ft 146 kts 327°
2026-05-07 18:22 55.49958 9.43015 1989 ft 139 kts 327°
2026-05-07 18:22 55.50788 9.42150 1892 ft 139 kts 327°
2026-05-07 18:23 55.51630 9.41280 1763 ft 140 kts 327°
2026-05-07 18:23 55.52472 9.40404 1634 ft 140 kts 327°
2026-05-07 18:23 55.53316 9.39525 1507 ft 141 kts 327°
2026-05-07 18:23 55.54164 9.38647 1373 ft 140 kts 327°
2026-05-07 18:24 55.55002 9.37772 1244 ft 139 kts 327°
2026-05-07 18:24 55.55827 9.36919 1190 ft 133 kts 327°
2026-05-07 18:24 55.56589 9.36119 1193 ft 126 kts 326°
2026-05-07 18:24 55.57339 9.35339 1188 ft 124 kts 327°
2026-05-07 18:25 55.58072 9.34575 1187 ft 121 kts 327°
2026-05-07 18:25 55.58790 9.33823 1189 ft 120 kts 327°
2026-05-07 18:25 55.59509 9.33076 1185 ft 120 kts 328°
2026-05-07 18:25 55.60221 9.32335 1183 ft 117 kts 327°
2026-05-07 18:26 55.60906 9.31620 1184 ft 115 kts 326°
2026-05-07 18:26 55.61588 9.30905 1185 ft 113 kts 326°
2026-05-07 18:26 55.62270 9.30190 1190 ft 116 kts 327°
2026-05-07 18:26 55.62912 9.29318 1189 ft 117 kts 311°
2026-05-07 18:27 55.63478 9.28258 1193 ft 119 kts 311°
2026-05-07 18:27 55.64049 9.27178 1193 ft 121 kts 311°
2026-05-07 18:27 55.64625 9.26090 1193 ft 121 kts 311°
2026-05-07 18:27 55.65363 9.25372 1191 ft 124 kts 342°
2026-05-07 18:28 55.66193 9.24992 1190 ft 122 kts 344°
2026-05-07 18:28 55.67020 9.24634 1186 ft 122 kts 344°
2026-05-07 18:28 55.67846 9.24287 1189 ft 123 kts 344°
2026-05-07 18:28 55.68677 9.23946 1185 ft 122 kts 343°
2026-05-07 18:29 55.69493 9.23605 1190 ft 119 kts 343°
2026-05-07 18:29 55.70292 9.23268 1196 ft 118 kts 344°
2026-05-07 18:29 55.71055 9.22944 1188 ft 105 kts 343°
2026-05-07 18:29 55.71748 9.22656 1153 ft 99 kts 342°
2026-05-07 18:30 55.72385 9.22369 1066 ft 92 kts 341°
2026-05-07 18:30 55.72977 9.22025 1019 ft 86 kts 336°
2026-05-07 18:30 55.73451 9.21451 956 ft 83 kts 312°
2026-05-07 18:30 55.73807 9.20693 839 ft 79 kts 295°
2026-05-07 18:31 55.73995 9.19776 604 ft 83 kts 285°
2026-05-07 18:31 55.74091 9.18787 449 ft 82 kts 277°
2026-05-07 18:31 55.74113 9.17791 286 ft 80 kts 269°
2026-05-07 18:31 55.74090 9.16932 237 ft 54 kts 268°
2026-05-07 18:32 55.74075 9.16398 232 ft 38 kts 268°
2026-05-07 18:32 55.74056 9.15972 226 ft 37 kts 269°
2026-05-07 18:32 55.74050 9.15573 225 ft 27 kts 265°
2026-05-07 18:32 55.74035 9.15250 226 ft 22 kts 261°
2026-05-07 18:33 55.73997 9.15008 225 ft 18 kts 251°
2026-05-07 18:33 55.73944 9.14826 222 ft 16 kts 236°
2026-05-07 18:33 55.73884 9.14759 221 ft 13 kts 144°
2026-05-07 18:33 55.73770 9.14827 221 ft 18 kts 179°
2026-05-07 18:34 55.73652 9.14845 221 ft 16 kts 186°
2026-05-07 18:34 55.73542 9.14847 221 ft 15 kts 175°
2026-05-07 18:34 55.73507 9.14823 221 ft 0 kts 350°